TimeEST,TemperatureF,Dew PointF,Humidity,Sea Level PressureIn,VisibilityMPH,Wind Direction,Wind SpeedMPH,Gust SpeedMPH,PrecipitationIn,Events,Conditions,WindDirDegrees,DateUTC
12:53 AM,60.1,48.9,67,30.24,10.0,Calm,Calm,-,N/A,,Mostly Cloudy,0,2013-02-02 05:53:00
1:53 AM,59.0,48.0,67,30.23,10.0,Calm,Calm,-,N/A,,Mostly Cloudy,0,2013-02-02 06:53:00
2:53 AM,57.9,46.9,67,30.22,10.0,NNW,6.9,-,N/A,,Scattered Clouds,340,2013-02-02 07:53:00
3:53 AM,57.0,45.0,64,30.22,10.0,North,3.5,-,N/A,,Partly Cloudy,350,2013-02-02 08:53:00
4:53 AM,57.0,37.9,49,30.23,10.0,North,5.8,-,N/A,,Partly Cloudy,350,2013-02-02 09:53:00
5:53 AM,55.9,36.0,47,30.23,10.0,Calm,Calm,-,N/A,,Partly Cloudy,0,2013-02-02 10:53:00
6:53 AM,55.9,35.1,45,30.26,10.0,NNW,5.8,-,N/A,,Scattered Clouds,330,2013-02-02 11:53:00
7:53 AM,57.0,35.1,44,30.27,10.0,North,3.5,-,N/A,,Scattered Clouds,350,2013-02-02 12:53:00
8:53 AM,63.0,39.0,41,30.27,10.0,North,5.8,-,N/A,,Scattered Clouds,350,2013-02-02 13:53:00
9:53 AM,66.0,45.0,47,30.27,10.0,North,3.5,-,N/A,,Scattered Clouds,10,2013-02-02 14:53:00
10:53 AM,73.0,46.9,39,30.25,10.0,East,13.8,20.7,N/A,,Partly Cloudy,80,2013-02-02 15:53:00
11:53 AM,73.0,48.0,41,30.23,10.0,East,13.8,20.7,N/A,,Scattered Clouds,90,2013-02-02 16:53:00
12:53 PM,73.0,46.0,38,30.21,10.0,East,11.5,18.4,N/A,,Scattered Clouds,90,2013-02-02 17:53:00
1:53 PM,73.0,48.0,41,30.17,10.0,East,11.5,16.1,N/A,,Scattered Clouds,90,2013-02-02 18:53:00
2:53 PM,73.0,50.0,44,30.17,10.0,ENE,8.1,17.3,N/A,,Scattered Clouds,70,2013-02-02 19:53:00
3:53 PM,70.0,50.0,49,30.16,10.0,ENE,8.1,-,N/A,,Partly Cloudy,60,2013-02-02 20:53:00
4:53 PM,70.0,51.1,51,30.16,10.0,East,10.4,-,N/A,,Scattered Clouds,80,2013-02-02 21:53:00
5:53 PM,69.1,51.1,53,30.15,10.0,ENE,5.8,-,N/A,,Clear,70,2013-02-02 22:53:00
6:53 PM,66.0,52.0,60,30.15,10.0,ENE,3.5,-,N/A,,Clear,60,2013-02-02 23:53:00
7:53 PM,64.9,52.0,63,30.17,10.0,Calm,Calm,-,N/A,,Clear,0,2013-02-03 00:53:00
8:53 PM,61.0,53.1,75,30.17,10.0,Calm,Calm,-,N/A,,Clear,0,2013-02-03 01:53:00
9:53 PM,59.0,52.0,78,30.17,10.0,Calm,Calm,-,N/A,,Clear,0,2013-02-03 02:53:00
10:53 PM,59.0,53.1,81,30.16,10.0,Calm,Calm,-,N/A,,Clear,0,2013-02-03 03:53:00
11:53 PM,59.0,53.1,81,30.13,10.0,Calm,Calm,-,N/A,,Clear,0,2013-02-03 04:53:00